Skip Page Navigation
NASA JPL Caltech
NASA Logo - Jet Propulsion Laboratory + View the NASA Portal
+ Center for Near-Earth Object Studies
JPL Home Earth Solar System Stars & Galaxies Technology
JPL Solar System Dynamics
BODIES ORBITS EPHEMERIDES TOOLS PHYSICAL DATA DISCOVERY FAQ SITE MAP
IMPORTANT: The SSD Announcement email list is now available. Major changes are coming in the near future, including possible hostname and/or URL changes. To be notified of such changes, subscribe to this email list.

Please visit this page for more details.


JPL Small-Body Database Browser
Search: [ help ]  
65169 (2002 CR167)
Classification: Outer Main-belt Asteroid          SPK-ID: 2065169
Ephemeris | Orbit Diagram | Orbital Elements | Mission Design | Physical Parameters | Discovery Circumstances | Close-Approach Data ]

[ show orbit diagram ]
Orbital Elements at Epoch 2458600.5 (2019-Apr-27.0) TDB
Reference: JPL 20 (heliocentric ecliptic J2000)
 Element Value Uncertainty (1-sigma)   Units 
e .08262003308857428 4.6239e-08  
a 3.21377765959217 2.6404e-08 au
q 2.948255243017344 1.5076e-07 au
i 10.22826770600507 4.8853e-06 deg
node 124.9318296340826 2.8816e-05 deg
peri 191.3721188316249 4.4529e-05 deg
M 191.4800878187909 3.666e-05 deg
tp 2459585.578615705274
(2022-Jan-06.07861571)
0.00021904 TDB
period 2104.370320775907
5.76
2.5934e-05
7.1e-08
d
yr
n .171072551463881 2.1083e-09 deg/d
Q 3.479300076166995 2.8586e-08 au
  Orbit Determination Parameters
   # obs. used (total)      826  
   data-arc span      8472 days (23.20 yr)  
   first obs. used      1996-02-15  
   last obs. used      2019-04-27  
   planetary ephem.      DE431  
   SB-pert. ephem.      SB431-N16  
   condition code      0  
   norm. resid. RMS      .55401  
   source      ORB  
   producer      Otto Matic  
   solution date      2019-Jul-13 04:04:31  

Additional Information
 Earth MOID = 1.93429 au 
 Jupiter MOID = 1.78715 au 
 T_jup = 3.161 
[ show covariance matrix ]

Ephemeris | Orbit Diagram | Orbital Elements | Mission Design | Physical Parameters | Discovery Circumstances | Close-Approach Data ]

Physical Parameter Table
Parameter Symbol Value Units Sigma Reference Notes
absolute magnitude H 14.2   n/a MPO263847  
diameter diameter 7.593 km 0.138 urn:nasa:pds:neowise_diameters_albedos::2.0[mainbelt] (http://adsabs.harvard.edu/abs/2011ApJ...741...68M)  
geometric albedo albedo 0.077   0.020 urn:nasa:pds:neowise_diameters_albedos::2.0[mainbelt] (http://adsabs.harvard.edu/abs/2011ApJ...741...68M)  

65169 (2002 CR167)          Discovered 2002-Feb-08 by LINEAR at Socorro
Reference: 20030614/Numbers.arcLast Updated: 2004-04-19

[ show close-approach data ]
Ephemeris | Orbit Diagram | Orbital Elements | Mission Design | Physical Parameters | Discovery Circumstances | Close-Approach Data ]
ABOUT SSD CREDITS/AWARDS PRIVACY/COPYRIGHT GLOSSARY LINKS
FirstGov 2020-Jan-28 22:43 UT
(server date/time)  
NASA Home Page
Site Manager:   Ryan S. Park
Webmaster  Alan B. Chamberlin